Previsão horária em Aberystwyth

Hoje, 18 Maio, Terça-feira

Tempo Temperatura Precipitação Vento Pressão Humidade
00:00 +7°C° 0.2 mm 3 m/s 749 mmHg 95%
01:00 +7°C° 0.2 mm 3 m/s 750 mmHg 95%
02:00 +7°C° 0.2 mm 3 m/s 750 mmHg 95%
03:00 +7°C° 0.2 mm 3 m/s 750 mmHg 95%
04:00 +7°C° 0 mm 3 m/s 750 mmHg 94%
05:00 +8°C° 0 mm 3 m/s 750 mmHg 94%
06:00 +8°C° 0 mm 2 m/s 750 mmHg 93%
07:00 +9°C° 0 mm 2 m/s 750 mmHg 87%
08:00 +10°C° 0 mm 2 m/s 751 mmHg 80%
09:00 +11°C° 0 mm 3 m/s 751 mmHg 73%
10:00 +13°C° 0.1 mm 2 m/s 751 mmHg 72%
11:00 +13°C° 0.1 mm 2 m/s 751 mmHg 70%
12:00 +13°C° 0.1 mm 2 m/s 751 mmHg 69%
13:00 +13°C° 0.2 mm 2 m/s 751 mmHg 71%
14:00 +13°C° 0.2 mm 2 m/s 751 mmHg 74%
15:00 +12°C° 0.2 mm 1 m/s 751 mmHg 77%
16:00 +12°C° 0.1 mm 2 m/s 751 mmHg 78%
17:00 +12°C° 0.1 mm 2 m/s 751 mmHg 79%
18:00 +12°C° 0.1 mm 2 m/s 751 mmHg 80%
19:00 +9°C° 0 mm 2 m/s 752 mmHg 84%
20:00 +8°C° 0 mm 2 m/s 752 mmHg 87%
21:00 +7°C° 0 mm 2 m/s 752 mmHg 91%
22:00 +6°C° 0.1 mm 2 m/s 753 mmHg 91%
23:00 +6°C° 0.1 mm 2 m/s 753 mmHg 92%

Amanhã, 19 Maio, Quarta-feira

Tempo Temperatura Precipitação Vento Pressão Humidade
00:00 +6°C° 0.1 mm 2 m/s 753 mmHg 93%
01:00 +6°C° 0.1 mm 2 m/s 753 mmHg 93%
02:00 +7°C° 0.1 mm 3 m/s 753 mmHg 94%
03:00 +7°C° 0.1 mm 3 m/s 753 mmHg 94%
04:00 +7°C° 0 mm 3 m/s 754 mmHg 94%
05:00 +7°C° 0 mm 4 m/s 754 mmHg 94%
06:00 +7°C° 0 mm 4 m/s 754 mmHg 93%
07:00 +8°C° 0 mm 4 m/s 755 mmHg 88%
08:00 +10°C° 0 mm 4 m/s 755 mmHg 82%
09:00 +10°C° 0 mm 5 m/s 756 mmHg 76%
10:00 +10°C° 0 mm 5 m/s 756 mmHg 73%
11:00 +10°C° 0 mm 5 m/s 756 mmHg 70%
12:00 +12°C° 0 mm 5 m/s 756 mmHg 66%
13:00 +12°C° 0 mm 5 m/s 757 mmHg 66%
14:00 +12°C° 0 mm 4 m/s 757 mmHg 66%
15:00 +12°C° 0 mm 4 m/s 757 mmHg 65%
16:00 +11°C° 0 mm 4 m/s 757 mmHg 69%
17:00 +11°C° 0 mm 4 m/s 757 mmHg 73%
18:00 +11°C° 0 mm 4 m/s 757 mmHg 76%
19:00 +8°C° 0 mm 4 m/s 757 mmHg 82%
20:00 +8°C° 0 mm 3 m/s 758 mmHg 87%
21:00 +7°C° 0 mm 3 m/s 758 mmHg 92%
22:00 +5°C° 0 mm 3 m/s 758 mmHg 93%
23:00 +5°C° 0 mm 3 m/s 758 mmHg 94%

Depois de amanhã, 20 Maio, Quinta-feira

Tempo Temperatura Precipitação Vento Pressão Humidade
00:00 +5°C° 0 mm 3 m/s 757 mmHg 95%
01:00 +5°C° 0 mm 3 m/s 757 mmHg 95%
02:00 +7°C° 0 mm 3 m/s 757 mmHg 96%
03:00 +7°C° 0 mm 3 m/s 757 mmHg 96%
04:00 +6°C° 0 mm 4 m/s 756 mmHg 94%
05:00 +7°C° 0 mm 4 m/s 756 mmHg 93%
06:00 +8°C° 0 mm 4 m/s 756 mmHg 91%
07:00 +8°C° 0.2 mm 5 m/s 755 mmHg 88%
08:00 +9°C° 0.2 mm 6 m/s 755 mmHg 86%
09:00 +9°C° 0.2 mm 7 m/s 754 mmHg 83%
10:00 +8°C° 0.4 mm 9 m/s 753 mmHg 86%
11:00 +7°C° 0.4 mm 10 m/s 752 mmHg 90%
12:00 +7°C° 0.4 mm 11 m/s 751 mmHg 93%
13:00 +7°C° 0.3 mm 11 m/s 751 mmHg 94%
14:00 +8°C° 0.3 mm 11 m/s 750 mmHg 95%
15:00 +8°C° 0.3 mm 11 m/s 749 mmHg 96%
16:00 +9°C° 0.1 mm 10 m/s 748 mmHg 95%
17:00 +9°C° 0.1 mm 10 m/s 748 mmHg 93%
18:00 +9°C° 0.1 mm 10 m/s 747 mmHg 92%
19:00 +9°C° 0.1 mm 10 m/s 747 mmHg 92%
20:00 +8°C° 0.1 mm 11 m/s 747 mmHg 91%
21:00 +8°C° 0.1 mm 11 m/s 746 mmHg 91%
22:00 +8°C° 0.2 mm 11 m/s 746 mmHg 90%
23:00 +7°C° 0.2 mm 11 m/s 745 mmHg 90%

21 Maio, Sexta-feira

Tempo Temperatura Precipitação Vento Pressão Humidade
00:00 +7°C° 0.2 mm 11 m/s 744 mmHg 89%
01:00 +7°C° 0.3 mm 12 m/s 744 mmHg 89%
02:00 +7°C° 0.3 mm 12 m/s 743 mmHg 89%
03:00 +7°C° 0.3 mm 12 m/s 742 mmHg 89%
04:00 +7°C° 0.2 mm 12 m/s 741 mmHg 88%
05:00 +7°C° 0.2 mm 13 m/s 741 mmHg 87%
06:00 +7°C° 0.2 mm 13 m/s 740 mmHg 87%
07:00 +7°C° 0.4 mm 13 m/s 739 mmHg 89%
08:00 +7°C° 0.4 mm 13 m/s 738 mmHg 91%
09:00 +7°C° 0.4 mm 13 m/s 738 mmHg 93%
10:00 +6°C° 0.3 mm 14 m/s 737 mmHg 94%
11:00 +6°C° 0.3 mm 14 m/s 736 mmHg 94%
12:00 +6°C° 0.3 mm 14 m/s 735 mmHg 94%
13:00 +6°C° 1.1 mm 14 m/s 735 mmHg 94%
14:00 +8°C° 1.1 mm 14 m/s 734 mmHg 95%
15:00 +8°C° 1.1 mm 14 m/s 734 mmHg 95%
16:00 +8°C° 0.8 mm 14 m/s 734 mmHg 95%
17:00 +8°C° 0.8 mm 13 m/s 734 mmHg 95%
18:00 +8°C° 0.8 mm 12 m/s 733 mmHg 94%
19:00 +8°C° 0.8 mm 12 m/s 734 mmHg 94%
20:00 +8°C° 0.8 mm 12 m/s 735 mmHg 94%
21:00 +7°C° 0.8 mm 12 m/s 736 mmHg 94%
22:00 +7°C° 0.3 mm 12 m/s 736 mmHg 94%
23:00 +7°C° 0.3 mm 12 m/s 737 mmHg 94%

22 Maio, Sábado

Tempo Temperatura Precipitação Vento Pressão Humidade
00:00 +5°C° 0.3 mm 12 m/s 737 mmHg 95%
01:00 +5°C° 0.1 mm 12 m/s 738 mmHg 93%
02:00 +4°C° 0.1 mm 12 m/s 738 mmHg 92%
03:00 +4°C° 0.1 mm 12 m/s 739 mmHg 91%
04:00 +4°C° 0.1 mm 12 m/s 739 mmHg 90%
05:00 +4°C° 0.1 mm 12 m/s 740 mmHg 89%
06:00 +4°C° 0.1 mm 12 m/s 740 mmHg 89%
07:00 +4°C° 0.1 mm 12 m/s 740 mmHg 89%
08:00 +4°C° 0.1 mm 12 m/s 741 mmHg 89%
09:00 +4°C° 0.1 mm 12 m/s 741 mmHg 90%
10:00 +4°C° 0.1 mm 11 m/s 741 mmHg 91%
11:00 +4°C° 0.1 mm 11 m/s 742 mmHg 92%
12:00 +6°C° 0.1 mm 11 m/s 742 mmHg 94%
13:00 +6°C° 0.1 mm 10 m/s 742 mmHg 94%
14:00 +6°C° 0.1 mm 10 m/s 743 mmHg 94%
15:00 +6°C° 0.1 mm 9 m/s 743 mmHg 94%
16:00 +6°C° 0.3 mm 9 m/s 743 mmHg 92%
17:00 +6°C° 0.3 mm 8 m/s 744 mmHg 91%
18:00 +6°C° 0.3 mm 8 m/s 744 mmHg 90%
19:00 +6°C° 0.4 mm 8 m/s 744 mmHg 90%
20:00 +5°C° 0.4 mm 8 m/s 745 mmHg 90%
21:00 +5°C° 0.4 mm 8 m/s 745 mmHg 90%
22:00 +4°C° 0.2 mm 8 m/s 745 mmHg 89%
23:00 +4°C° 0.2 mm 8 m/s 745 mmHg 89%

23 Maio, Domingo

Tempo Temperatura Precipitação Vento Pressão Humidade
00:00 +4°C° 0.2 mm 8 m/s 746 mmHg 88%
01:00 +2°C° 0.1 mm 8 m/s 746 mmHg 88%
02:00 +3°C° 0.1 mm 7 m/s 746 mmHg 89%
03:00 +3°C° 0.1 mm 7 m/s 746 mmHg 89%
04:00 +3°C° 0.2 mm 7 m/s 746 mmHg 88%
05:00 +3°C° 0.2 mm 7 m/s 746 mmHg 87%
06:00 +4°C° 0.2 mm 6 m/s 746 mmHg 87%
07:00 +5°C° 0.2 mm 7 m/s 745 mmHg 85%
08:00 +6°C° 0.2 mm 7 m/s 745 mmHg 84%
09:00 +7°C° 0.2 mm 8 m/s 745 mmHg 83%
10:00 +7°C° 1 mm 8 m/s 745 mmHg 86%
11:00 +6°C° 1 mm 8 m/s 744 mmHg 90%
12:00 +6°C° 1 mm 8 m/s 744 mmHg 94%
13:00 +6°C° 0.5 mm 8 m/s 744 mmHg 93%
14:00 +7°C° 0.5 mm 9 m/s 743 mmHg 91%
15:00 +8°C° 0.5 mm 9 m/s 743 mmHg 90%
16:00 +7°C° 0.6 mm 9 m/s 743 mmHg 89%
17:00 +7°C° 0.6 mm 9 m/s 743 mmHg 88%
18:00 +7°C° 0.6 mm 9 m/s 743 mmHg 87%
19:00 +6°C° 0.2 mm 8 m/s 744 mmHg 87%
20:00 +6°C° 0.2 mm 8 m/s 745 mmHg 88%
21:00 +5°C° 0.2 mm 8 m/s 745 mmHg 88%
22:00 +5°C° 0.1 mm 8 m/s 745 mmHg 89%
23:00 +5°C° 0.1 mm 8 m/s 746 mmHg 90%
Mostrar mais

Necessitamos do seu Consentimento

A Meteoprog e os seus Fornecedores de Serviços podem armazenar e aceder a dados pessoais como cookies, identificadores do dispositivo ou outras tecnologias semelhantes existentes no seu dispositivo e processar estes dados para personalizar conteúdos e anúncios, assim como funcionalidades nas redes sociais e análise de tráfego.

  • Armazenar e/ou aceder a informações no seu dispositivo

    Os cookies, identificadores do dispositivo ou outras informações podem ser armazenados ou acedidos no seu dispositivo, para os fins acima indicados.

  • Anúncios e conteúdos personalizados, medição de anúncios e conteúdos, dados sobre o público-alvo e desenvolvimento de produtos

    Os anúncios e os conteúdos podem ser personalizados com base num perfil. Podem ser adicionados dados adicionais para uma maior personalização dos anúncios e dos conteúdos. A eficácia dos anúncios e dos conteúdos pode ser medida. Podem ser obtidas informações sobre o público que visualizou os anúncios e os conteúdos. Estes dados podem ser usados para desenvolver ou melhorar sistemas, softwares ou a experiência do utilizador.

Ao clicar em "Eu concordo”, permitirá o uso de cookies, identificadores do dispositivo e web beacons mencionados ou outras tecnologias semelhantes. As configurações do navegador do seu dispositivo podem ser alteradas.

Para certos fins, podem ser invocados interesses legítimos ao invés de consentimento. Pode ler mais informação sobre este assunto na nossa Política de Privacidade e Cookies.